| time (UTC) | temp F | wind direction | speed MPH | gust MPH | rain 1hr in | rain 24hr in | rain mn in | humidity % | barometer mb |
| 20260905131612 | 71 | 185 | 4.0 | 8.0 | 0.00 | 0.00 | 0.00 | 22 | 1022.3 |
| 20260905130612 | 73 | 66 | 3.0 | 7.0 | 0.00 | 0.00 | 0.00 | 21 | 1022.6 |
| 20260905125611 | 71 | 214 | 4.0 | 6.0 | 0.00 | 0.00 | 0.00 | 22 | 1022.5 |
| 20260905124611 | 75 | 125 | 4.0 | 8.0 | 0.00 | 0.00 | 0.00 | 21 | 1022.7 |
| 20260905123611 | 75 | 103 | 4.0 | 13.0 | 0.00 | 0.00 | 0.00 | 21 | 1022.6 |
| 20260905122610 | 72 | 237 | 3.0 | 6.0 | 0.00 | 0.00 | 0.00 | 21 | 1022.5 |
| 20260905121610 | 76 | 205 | 2.0 | 4.0 | 0.00 | 0.00 | 0.00 | 20 | 1022.8 |
| 20260905120610 | 77 | 159 | 2.0 | 5.0 | 0.00 | 0.00 | 0.00 | 20 | 1022.9 |
| 20260905115610 | 74 | 157 | 4.0 | 8.0 | 0.00 | 0.00 | 0.00 | 21 | 1022.5 |
| 20260905114609 | 73 | 138 | 4.0 | 6.0 | 0.00 | 0.00 | 0.00 | 21 | 1022.7 |
| 20260905113609 | 74 | 173 | 4.0 | 8.0 | 0.00 | 0.00 | 0.00 | 21 | 1022.7 |
| 20260905112609 | 72 | 192 | 5.0 | 10.0 | 0.00 | 0.00 | 0.00 | 22 | 1022.5 |
| 20260905111608 | 73 | 209 | 5.0 | 11.0 | 0.00 | 0.00 | 0.00 | 21 | 1022.7 |
| 20260905110608 | 72 | 121 | 4.0 | 10.0 | 0.00 | 0.00 | 0.00 | 21 | 1022.8 |
| 20260905105608 | 72 | 313 | 2.0 | 5.0 | 0.00 | 0.00 | 0.00 | 21 | 1022.7 |
| 20260905104608 | 73 | 356 | 3.0 | 6.0 | 0.00 | 0.00 | 0.00 | 21 | 1022.7 |
| 20260905103607 | 74 | 317 | 2.0 | 5.0 | 0.00 | 0.00 | 0.00 | 21 | 1022.8 |
| 20260905102607 | 70 | 347 | 2.0 | 4.0 | 0.00 | 0.00 | 0.00 | 22 | 1022.8 |
| 20260905101607 | 71 | 331 | 1.0 | 3.0 | 0.00 | 0.00 | 0.00 | 22 | 1022.8 |
| 20260905100606 | 67 | 292 | 1.0 | 3.0 | 0.00 | 0.00 | 0.00 | 23 | 1022.6 |
| 20260905095606 | 66 | 18 | 0.0 | 3.0 | 0.00 | 0.00 | 0.00 | 23 | 1022.8 |
| 20260905094606 | 65 | 93 | 2.0 | 4.0 | 0.00 | 0.00 | 0.00 | 23 | 1022.7 |
| 20260905093606 | 64 | 97 | 3.0 | 9.0 | 0.00 | 0.00 | 0.00 | 24 | 1022.7 |
| 20260905092605 | 65 | 90 | 1.0 | 4.0 | 0.00 | 0.00 | 0.00 | 23 | 1022.7 |
| 20260905091605 | 65 | 242 | 0.0 | 2.0 | 0.00 | 0.00 | 0.00 | 23 | 1022.6 |
| 20260905090605 | 65 | 114 | 0.0 | 3.0 | 0.00 | 0.00 | 0.00 | 23 | 1022.2 |
| 20260905085604 | 64 | 150 | 0.0 | 3.0 | 0.00 | 0.00 | 0.00 | 24 | 1021.7 |
| 20260905084604 | 64 | 1 | 0.0 | 1.0 | 0.00 | 0.00 | 0.00 | 24 | 1021.6 |
| 20260905083604 | 62 | 0 | 0.0 | 0.0 | 0.00 | 0.00 | 0.00 | 24 | 1021.8 |
| 20260905082603 | 62 | 356 | 0.0 | 2.0 | 0.00 | 0.00 | 0.00 | 24 | 1022.1 |
| 20260905081603 | 62 | 317 | 0.0 | 3.0 | 0.00 | 0.00 | 0.00 | 24 | 1022.0 |
| 20260905080603 | 63 | 6 | 0.0 | 1.0 | 0.00 | 0.00 | 0.00 | 24 | 1022.4 |
| 20260905075603 | 63 | 86 | 0.0 | 3.0 | 0.00 | 0.00 | 0.00 | 24 | 1022.0 |
| 20260905074602 | 63 | 237 | 1.0 | 2.0 | 0.00 | 0.00 | 0.00 | 24 | 1021.5 |
| 20260905073602 | 63 | 181 | 0.0 | 0.0 | 0.00 | 0.00 | 0.00 | 24 | 1021.7 |
| 20260905072602 | 64 | 225 | 0.0 | 1.0 | 0.00 | 0.00 | 0.00 | 24 | 1021.5 |
| 20260905071601 | 65 | 204 | 2.0 | 4.0 | 0.00 | 0.00 | 0.00 | 23 | 1021.3 |
| 20260905070601 | 65 | 219 | 2.0 | 5.0 | 0.00 | 0.00 | 0.00 | 23 | 1021.4 |
| 20260905065601 | 65 | 221 | 4.0 | 8.0 | 0.00 | 0.00 | 0.00 | 23 | 1021.0 |
| 20260905064601 | 66 | 235 | 2.0 | 4.0 | 0.00 | 0.00 | 0.00 | 23 | 1021.4 |
| 20260905063600 | 64 | 311 | 1.0 | 4.0 | 0.00 | 0.00 | 0.00 | 24 | 1021.5 |
| 20260905062600 | 66 | 275 | 2.0 | 4.0 | 0.00 | 0.00 | 0.00 | 23 | 1021.3 |
| 20260905061600 | 64 | 326 | 0.0 | 2.0 | 0.00 | 0.00 | 0.00 | 24 | 1021.0 |
| 20260905060559 | 64 | 194 | 0.0 | 1.0 | 0.00 | 0.00 | 0.00 | 24 | 1020.9 |
| 20260905055559 | 64 | 225 | 0.0 | 1.0 | 0.00 | 0.00 | 0.00 | 24 | 1020.6 |
| 20260905054559 | 64 | 314 | 0.0 | 2.0 | 0.00 | 0.00 | 0.00 | 24 | 1020.6 |
| 20260905053559 | 64 | 308 | 1.0 | 4.0 | 0.00 | 0.00 | 0.00 | 24 | 1020.5 |
| 20260905052558 | 64 | 248 | 0.0 | 5.0 | 0.00 | 0.00 | 0.00 | 24 | 1020.1 |
| 20260905051558 | 63 | 304 | 0.0 | 1.0 | 0.00 | 0.00 | 0.00 | 24 | 1019.9 |
| 20260905050558 | 64 | 265 | 0.0 | 3.0 | 0.00 | 0.00 | 0.00 | 24 | 1020.0 |
| 20260905045557 | 65 | 205 | 2.0 | 5.0 | 0.00 | 0.00 | 0.00 | 23 | 1019.5 |
| 20260905044557 | 65 | 185 | 3.0 | 5.0 | 0.00 | 0.00 | 0.00 | 23 | 1019.2 |
| 20260905043557 | 65 | 238 | 2.0 | 4.0 | 0.00 | 0.00 | 0.00 | 23 | 1018.9 |
| 20260905042556 | 65 | 214 | 3.0 | 5.0 | 0.00 | 0.00 | 0.00 | 23 | 1018.7 |
| 20260905041556 | 65 | 230 | 5.0 | 10.0 | 0.00 | 0.00 | 0.00 | 23 | 1018.4 |
| 20260905040556 | 64 | 270 | 4.0 | 8.0 | 0.00 | 0.00 | 0.00 | 24 | 1018.1 |
| 20260905035556 | 63 | 266 | 2.0 | 5.0 | 0.00 | 0.05 | 0.05 | 24 | 1017.9 |
| 20260905034555 | 64 | 224 | 6.0 | 11.0 | 0.00 | 0.05 | 0.05 | 24 | 1017.9 |
| 20260905033555 | 64 | 227 | 4.0 | 6.0 | 0.00 | 0.05 | 0.05 | 24 | 1018.0 |
| 20260905032555 | 64 | 226 | 6.0 | 8.0 | 0.04 | 0.05 | 0.05 | 24 | 1018.1 |
| 20260905031555 | 64 | 226 | 6.0 | 8.0 | 0.04 | 0.05 | 0.05 | 24 | 1018.1 |
| 20260905030554 | 63 | 211 | 3.0 | 5.0 | 0.05 | 0.05 | 0.05 | 24 | 1018.1 |
| 20260905025554 | 63 | 249 | 3.0 | 6.0 | 0.05 | 0.05 | 0.05 | 24 | 1018.1 |
| 20260905024554 | 63 | 285 | 3.0 | 6.0 | 0.05 | 0.05 | 0.05 | 24 | 1017.9 |
| 20260905023553 | 64 | 290 | 1.0 | 4.0 | 0.05 | 0.05 | 0.05 | 24 | 1017.7 |
| 20260905022553 | 64 | 270 | 3.0 | 5.0 | 0.01 | 0.01 | 0.01 | 24 | 1017.7 |
| 20260905021553 | 68 | 242 | 2.0 | 4.0 | 0.01 | 0.01 | 0.01 | 23 | 1017.7 |
| 20260905020552 | 68 | 283 | 1.0 | 3.0 | 0.00 | 0.00 | 0.00 | 23 | 1017.4 |
| 20260905015552 | 67 | 61 | 1.0 | 3.0 | 0.00 | 0.00 | 0.00 | 23 | 1017.0 |
| 20260905014552 | 68 | 181 | 1.0 | 2.0 | 0.00 | 0.00 | 0.00 | 23 | 1017.0 |
| 20260905013551 | 68 | 117 | 1.0 | 3.0 | 0.00 | 0.00 | 0.00 | 23 | 1016.8 |
| 20260905012551 | 67 | 163 | 1.0 | 3.0 | 0.00 | 0.00 | 0.00 | 23 | 1016.9 |
| 20260905011551 | -1 | 127 | 1.0 | 4.0 | 0.00 | 0.00 | 0.00 | 12 | 1010.1 |
| 20260905010551 | 67 | 122 | 0.0 | 4.0 | 0.00 | 0.00 | 0.00 | 23 | 1016.8 |
| 20260905005550 | 67 | 122 | 0.0 | 3.0 | 0.00 | 0.00 | 0.00 | 23 | 1016.8 |
| 20260905004550 | 67 | 63 | 2.0 | 3.0 | 0.00 | 0.00 | 0.00 | 23 | 1016.8 |
| 20260905003550 | 67 | 127 | 1.0 | 3.0 | 0.00 | 0.00 | 0.00 | 23 | 1016.8 |
| 20260905002549 | 66 | 63 | 0.0 | 3.0 | 0.00 | 0.00 | 0.00 | 23 | 1016.7 |
| 20260905001549 | 65 | 64 | 0.0 | 1.0 | 0.00 | 0.00 | 0.00 | 23 | 1016.7 |
| 20260905000549 | 65 | 88 | 0.0 | 1.0 | 0.00 | 0.00 | 0.00 | 23 | 1016.7 |
| 20260904235549 | 65 | 92 | 0.0 | 2.0 | 0.00 | 0.00 | 0.00 | 23 | 1016.6 |
| 20260904234548 | 65 | 59 | 0.0 | 2.0 | 0.00 | 0.00 | 0.00 | 23 | 1016.7 |
| 20260904233548 | 65 | 129 | 0.0 | 3.0 | 0.00 | 0.00 | 0.00 | 23 | 1016.7 |
| 20260904232548 | 64 | 122 | 1.0 | 2.0 | 0.00 | 0.00 | 0.00 | 24 | 1016.8 |
| 20260904231547 | 64 | 131 | 0.0 | 1.0 | 0.00 | 0.00 | 0.00 | 24 | 1016.8 |
| 20260904230547 | 64 | 90 | 0.0 | 1.0 | 0.00 | 0.00 | 0.00 | 24 | 1016.9 |
| 20260904225547 | 65 | 67 | 0.0 | 0.0 | 0.00 | 0.00 | 0.00 | 23 | 1016.9 |
| 20260904224546 | 66 | 108 | 0.0 | 2.0 | 0.00 | 0.00 | 0.00 | 23 | 1016.8 |
| 20260904223546 | 64 | 181 | 0.0 | 0.0 | 0.00 | 0.00 | 0.00 | 24 | 1016.8 |
| 20260904222546 | 65 | 28 | 0.0 | 2.0 | 0.00 | 0.00 | 0.00 | 23 | 1016.9 |
| 20260904221546 | 65 | 90 | 0.0 | 2.0 | 0.00 | 0.00 | 0.00 | 23 | 1016.8 |
| 20260904220545 | 64 | 90 | 0.0 | 1.0 | 0.00 | 0.00 | 0.00 | 24 | 1010.4 |
| 20260904215545 | 63 | 0 | 0.0 | 0.0 | 0.00 | 0.00 | 0.00 | 24 | 1016.9 |
| 20260904214545 | 62 | 0 | 0.0 | 0.0 | 0.00 | 0.00 | 0.00 | 24 | 1016.9 |
| 20260904213544 | 62 | 135 | 0.0 | 0.0 | 0.00 | 0.00 | 0.00 | 24 | 1017.1 |
| 20260904212544 | 62 | 0 | 0.0 | 0.0 | 0.00 | 0.00 | 0.00 | 24 | 1017.2 |
| 20260904211544 | 65 | 0 | 0.0 | 0.0 | 0.00 | 0.00 | 0.00 | 23 | 1017.5 |
| 20260904210543 | 65 | 0 | 0.0 | 0.0 | 0.00 | 0.00 | 0.00 | 23 | 1017.5 |
| 20260904205543 | 64 | 0 | 0.0 | 0.0 | 0.00 | 0.00 | 0.00 | 24 | 1017.5 |
| 20260904204543 | 66 | 0 | 0.0 | 0.0 | 0.00 | 0.00 | 0.00 | 23 | 1017.6 |
| 20260904203543 | 67 | 110 | 0.0 | 2.0 | 0.00 | 0.00 | 0.00 | 23 | 1017.8 |
| 20260904202542 | 68 | 93 | 0.0 | 1.0 | 0.00 | 0.00 | 0.00 | 23 | 1017.8 |
| 20260904201542 | 69 | 23 | 0.0 | 2.0 | 0.00 | 0.00 | 0.00 | 22 | 1018.0 |
| 20260904200542 | 70 | 52 | 1.0 | 2.0 | 0.00 | 0.00 | 0.00 | 22 | 1018.2 |
| 20260904195541 | 71 | 356 | 1.0 | 3.0 | 0.00 | 0.00 | 0.00 | 22 | 1018.3 |
| 20260904194541 | 70 | 113 | 1.0 | 4.0 | 0.00 | 0.00 | 0.00 | 22 | 1018.2 |
| 20260904193541 | 70 | 149 | 1.0 | 4.0 | 0.00 | 0.00 | 0.00 | 22 | 1018.4 |
| 20260904192541 | 70 | 104 | 1.0 | 3.0 | 0.00 | 0.00 | 0.00 | 22 | 1018.3 |
| 20260904191540 | 71 | 125 | 2.0 | 4.0 | 0.00 | 0.00 | 0.00 | 22 | 1018.3 |
| 20260904190540 | 70 | 111 | 2.0 | 4.0 | 0.00 | 0.00 | 0.00 | 22 | 1018.3 |
| 20260904185540 | 72 | 94 | 2.0 | 5.0 | 0.00 | 0.00 | 0.00 | 21 | 1018.3 |
| 20260904184539 | 71 | 138 | 2.0 | 5.0 | 0.00 | 0.00 | 0.00 | 22 | 1018.3 |
| 20260904183539 | 69 | 119 | 0.0 | 4.0 | 0.00 | 0.00 | 0.00 | 22 | 1018.1 |
| 20260904182539 | 70 | 66 | 0.0 | 1.0 | 0.00 | 0.00 | 0.00 | 22 | 1018.1 |
| 20260904181539 | 71 | 26 | 0.0 | 1.0 | 0.00 | 0.00 | 0.00 | 22 | 1018.1 |
| 20260904180538 | 70 | 136 | 0.0 | 4.0 | 0.00 | 0.00 | 0.00 | 22 | 1017.9 |
| 20260904175538 | 69 | 0 | 0.0 | 0.0 | 0.00 | 0.00 | 0.00 | 22 | 1017.8 |
| 20260904174538 | 70 | 102 | 0.0 | 2.0 | 0.00 | 0.00 | 0.00 | 22 | 1017.8 |
| 20260904173537 | 71 | 90 | 0.0 | 2.0 | 0.00 | 0.00 | 0.00 | 22 | 1017.9 |
| 20260904172537 | 72 | 117 | 1.0 | 2.0 | 0.00 | 0.00 | 0.00 | 21 | 1017.9 |
| 20260904171537 | 73 | 52 | 0.0 | 4.0 | 0.00 | 0.00 | 0.00 | 21 | 1018.1 |
| 20260904170536 | 73 | 29 | 0.0 | 1.0 | 0.00 | 0.00 | 0.00 | 21 | 1018.2 |
| 20260904165536 | 74 | 93 | 0.0 | 1.0 | 0.00 | 0.00 | 0.00 | 21 | 1018.4 |
| 20260904164536 | 76 | 41 | 2.0 | 4.0 | 0.00 | 0.00 | 0.00 | 20 | 1018.6 |
| 20260904163536 | 76 | 59 | 2.0 | 5.0 | 0.00 | 0.00 | 0.00 | 20 | 1018.8 |
| 20260904162535 | 77 | 47 | 1.0 | 3.0 | 0.00 | 0.00 | 0.00 | 20 | 1019.0 |
| 20260904161535 | 78 | 18 | 3.0 | 6.0 | 0.00 | 0.00 | 0.00 | 20 | 1019.3 |
| 20260904160535 | 81 | 53 | 3.0 | 4.0 | 0.00 | 0.00 | 0.00 | 20 | 1019.6 |
| 20260904155534 | 81 | 17 | 2.0 | 4.0 | 0.00 | 0.00 | 0.00 | 20 | 1019.6 |
| 20260904154534 | 81 | 90 | 5.0 | 10.0 | 0.00 | 0.00 | 0.00 | 20 | 1019.6 |
| 20260904153534 | 80 | 57 | 5.0 | 8.0 | 0.00 | 0.00 | 0.00 | 20 | 1019.8 |
| 20260904152534 | 78 | 329 | 4.0 | 6.0 | 0.00 | 0.00 | 0.00 | 20 | 1019.8 |
| 20260904151533 | 76 | 19 | 3.0 | 5.0 | 0.00 | 0.00 | 0.00 | 20 | 1019.8 |
| 20260904150533 | 75 | 92 | 3.0 | 5.0 | 0.00 | 0.00 | 0.00 | 21 | 1019.8 |
| 20260904145533 | 75 | 55 | 3.0 | 8.0 | 0.00 | 0.00 | 0.00 | 20 | 1019.9 |
| 20260904144532 | 79 | 89 | 3.0 | 5.0 | 0.00 | 0.00 | 0.00 | 20 | 1020.2 |
| 20260904143532 | 77 | 159 | 4.0 | 7.0 | 0.00 | 0.00 | 0.00 | 20 | 1020.3 |
| 20260904142532 | 78 | 136 | 4.0 | 8.0 | 0.00 | 0.00 | 0.00 | 20 | 1020.4 |
| 20260904141532 | 79 | 87 | 4.0 | 7.0 | 0.00 | 0.00 | 0.00 | 20 | 1020.4 |
| 20260904140531 | 81 | 78 | 1.0 | 5.0 | 0.00 | 0.00 | 0.00 | 20 | 1020.7 |
| 20260904135531 | 81 | 85 | 3.0 | 6.0 | 0.00 | 0.00 | 0.00 | 20 | 1020.7 |
| 20260904134531 | 79 | 122 | 2.0 | 6.0 | 0.00 | 0.00 | 0.00 | 20 | 1020.8 |
| 20260904133530 | 80 | 68 | 1.0 | 5.0 | 0.00 | 0.00 | 0.00 | 20 | 1020.9 |
| 20260904132530 | 78 | 106 | 2.0 | 4.0 | 0.00 | 0.00 | 0.00 | 20 | 1021.0 |